Eelde, Netherlands

11:07 AM CET on November 25, 2017 (GMT +0100)
Eelde

Weather History for EHGG - October, 2013

Change the Weather History Date:

Wednesday, October 16, 2013

  Actual Average Record
Temperature  
Mean Temperature 48 °F -  
Max Temperature 59 °F 52 °F 72 °F (2017)
Min Temperature 37 °F 39 °F 28 °F (1997)
Degree Days  
Heating Degree Days 17    
Moisture  
Dew Point 49 °F    
Average Humidity 87    
Maximum Humidity 100    
Minimum Humidity 64    
Precipitation  
Precipitation 0.04 in 0.10 in - ()
Sea Level Pressure  
Sea Level Pressure 29.85 in    
Wind  
Wind Speed 5 mph ()    
Max Wind Speed 9 mph    
Max Gust Speed -    
Visibility 5.4 miles    
Events Rain    
Averages and records for this station are not official NWS values.
T = Trace of Precipitation, MM = Missing Value Source: Averaged Metar Reports

Daily Weather History Graph

Daily Weather History Graph

Search for Another Location

Airport or City:

Trip Planner

Search our weather history database for the weather conditions in past years. The results will help you decide how hot, cold, wet, or windy it might be!

Date:

Astronomy

Oct. 16, 2013 Rise Set
Actual Time 8:02 AM CEST 6:35 PM CEST
Civil Twilight 7:26 AM CEST 7:10 PM CEST
Nautical Twilight 6:46 AM CEST 7:50 PM CEST
Astronomical Twilight 6:06 AM CEST 8:30 PM CEST
Moon 5:21 PM CEST (10/16) 4:52 AM CEST (10/16)
Length of Visible Light 11h 43m
Length of Day
10h 33m
Waxing Gibbous, 92% of the Moon is Illuminated
Oct 16
Waxing Gibbous
Oct 19
Full
Oct 27
Last Quarter
Nov 3
New
Nov 10
First Quarter

Hourly Weather History & Observations

Time (CEST) Temp. Windchill Dew Point Humidity Pressure Visibility Wind Dir Wind Speed Gust Speed Precip Events Conditions
12:25 AM 41.0 °F 39.0 °F 41.0 °F 100% 29.77 in - WSW 3.5 mph - N/A   Mostly Cloudy
12:55 AM 44.6 °F 42.2 °F 42.8 °F 93% 29.77 in - WSW 4.6 mph - N/A   Overcast
1:25 AM 46.4 °F 45.2 °F 44.6 °F 93% 29.80 in - WSW 3.5 mph - N/A   Overcast
1:55 AM 46.4 °F 44.3 °F 46.4 °F 100% 29.80 in - WSW 4.6 mph - N/A Rain Light Rain
2:00 AM 47 °F - 46 °F 95% 29.81 in 2 mi WSW 6.7 mph - - Rain Rain
2:25 AM 48.2 °F - 46.4 °F 93% 29.80 in - West 6.9 mph - N/A   Mostly Cloudy
2:55 AM 48.2 °F - 48.2 °F 100% 29.80 in - West 4.6 mph - N/A   Partly Cloudy
3:25 AM 48.2 °F - 48.2 °F 100% 29.80 in - West 4.6 mph - N/A   Mostly Cloudy
3:55 AM 50.0 °F - 48.2 °F 94% 29.83 in - West 3.5 mph - N/A   Mostly Cloudy
4:25 AM 51.8 °F - 50.0 °F 94% 29.83 in - WNW 5.8 mph - N/A   Mostly Cloudy
4:55 AM 51.8 °F - 50.0 °F 94% 29.83 in 3.1 mi NW 6.9 mph - N/A   Scattered Clouds
5:00 AM 51 °F - 49 °F 91% 29.85 in 4 mi North 6.7 mph - -   Mist
5:25 AM 50.0 °F - 48.2 °F 94% 29.83 in 5.0 mi North 6.9 mph - N/A   Mostly Cloudy
5:55 AM 51.8 °F - 48.2 °F 88% 29.86 in 5.6 mi NNW 8.1 mph - N/A   Overcast
6:25 AM 51.8 °F - 48.2 °F 88% 29.86 in 6.2 mi NW 5.8 mph - N/A   Overcast
6:55 AM 51.8 °F - 50.0 °F 94% 29.86 in 5.6 mi NNW 5.8 mph - N/A   Overcast
7:25 AM 51.8 °F - 50.0 °F 94% 29.86 in 5.6 mi NNW 6.9 mph - N/A   Overcast
7:55 AM 51.8 °F - 50.0 °F 94% 29.89 in 5.0 mi NNW 5.8 mph - N/A   Overcast
8:00 AM 53 °F - 50 °F 84% 29.89 in 6 mi North 6.7 mph - -   Mist
8:25 AM 53.6 °F - 50.0 °F 88% 29.89 in 5.6 mi North 5.8 mph - N/A   Overcast
8:55 AM 51.8 °F - 48.2 °F 88% 29.89 in 5.0 mi North 4.6 mph - N/A   Unknown
9:25 AM 53.6 °F - 50.0 °F 88% 29.89 in 5.0 mi North 3.5 mph - N/A   Unknown
9:55 AM 53.6 °F - 50.0 °F 88% 29.89 in 5.6 mi NNE 4.6 mph - N/A   Unknown
10:25 AM 55.4 °F - 50.0 °F 82% 29.92 in 6.2 mi North 3.5 mph - N/A   Unknown
10:55 AM 55.4 °F - 50.0 °F 82% 29.92 in 6.2 mi NNE 4.6 mph - N/A   Partly Cloudy
11:00 AM 57 °F - 51 °F 74% 29.93 in 7 mi NE 4.5 mph - -   Partly Cloudy
11:25 AM 57.2 °F - 50.0 °F 77% 29.92 in 6.2 mi ENE 8.1 mph - N/A   Unknown
11:55 AM 57.2 °F - 50.0 °F 77% 29.92 in 6.2 mi NNE 4.6 mph - N/A   Scattered Clouds
12:25 PM 57.2 °F - 50.0 °F 77% 29.92 in 6.2 mi ENE 6.9 mph - N/A   Scattered Clouds
12:55 PM 57.2 °F - 50.0 °F 77% 29.92 in 6.2 mi East 5.8 mph - N/A   Mostly Cloudy
1:25 PM 57.2 °F - 50.0 °F 77% 29.89 in 6.2 mi Variable 4.6 mph - N/A   Mostly Cloudy
1:55 PM 59.0 °F - 50.0 °F 72% 29.89 in 6.2 mi SE 5.8 mph - N/A   Overcast
2:00 PM 59 °F - 50 °F 64% 29.91 in 12 mi SSE 6.7 mph - -   Partly Cloudy
2:25 PM 57.2 °F - 50.0 °F 77% 29.89 in 6.2 mi South 8.1 mph - N/A   Mostly Cloudy
2:55 PM 57.2 °F - 50.0 °F 77% 29.89 in 6.2 mi South 4.6 mph - N/A   Overcast
3:25 PM 57.2 °F - 50.0 °F 77% 29.89 in 6.2 mi South 5.8 mph - N/A   Overcast
3:55 PM 57.2 °F - 50.0 °F 77% 29.89 in 6.2 mi SSE 4.6 mph - N/A   Overcast
4:25 PM 57.2 °F - 50.0 °F 77% 29.89 in 6.2 mi South 4.6 mph - N/A   Overcast
4:55 PM 57.2 °F - 50.0 °F 77% 29.86 in 6.2 mi South 4.6 mph - N/A   Overcast
5:00 PM 56 °F - 51 °F 77% 29.88 in 7 mi South 4.5 mph - -   Overcast
5:25 PM 55.4 °F - 50.0 °F 82% 29.86 in 6.2 mi SSE 4.6 mph - N/A   Overcast
5:55 PM 55.4 °F - 50.0 °F 82% 29.83 in 6.2 mi SSE 6.9 mph - N/A   Mostly Cloudy
6:25 PM 53.6 °F - 50.0 °F 88% 29.83 in 5.0 mi South 6.9 mph - N/A   Overcast
6:55 PM 53.6 °F - 50.0 °F 88% 29.86 in 4.3 mi South 5.8 mph - N/A   Overcast
7:25 PM 53.6 °F - 50.0 °F 88% 29.83 in 3.7 mi SSE 5.8 mph - N/A   Overcast
7:55 PM 53.6 °F - 50.0 °F 88% 29.83 in 3.1 mi South 6.9 mph - N/A   Scattered Clouds
8:00 PM 53 °F - 50 °F 87% 29.85 in 3 mi South 6.7 mph - -   Mist
8:25 PM 53.6 °F - 50.0 °F 88% 29.83 in 3.1 mi South 6.9 mph - N/A   Overcast
8:55 PM 51.8 °F - 50.0 °F 94% 29.83 in - South 8.1 mph - N/A   Overcast
9:25 PM 51.8 °F - 50.0 °F 94% 29.83 in - South 8.1 mph - N/A   Mostly Cloudy
9:55 PM 51.8 °F - 50.0 °F 94% 29.80 in - South 8.1 mph - N/A   Mostly Cloudy
10:25 PM 51.8 °F - 50.0 °F 94% 29.80 in - SSE 9.2 mph - N/A   Partly Cloudy
10:55 PM 51.8 °F - 50.0 °F 94% 29.77 in - SSE 8.1 mph - N/A Rain Light Rain
11:00 PM 51 °F - 49 °F 92% 29.79 in 2 mi SSE 8.9 mph - - Rain Light Rain Showers
11:25 PM 51.8 °F - 50.0 °F 94% 29.77 in - SSE 9.2 mph - N/A   Drizzle
11:55 PM 51.8 °F - 50.0 °F 94% 29.77 in 1.6 mi SSE 8.1 mph - N/A   Drizzle